Weather History for Nacogdoches, TX

Change the Weather History Date:

Tuesday, September 10, 2013

  Actual Average Record
Temperature  
Mean Temperature 80 °F -  
Max Temperature 93 °F 87 °F 95 °F (2011)
Min Temperature 68 °F 65 °F 48 °F (2011)
Cooling Degree Days 16    
Growing Degree Days 30 (Base 50)    
Moisture  
Dew Point 65 °F    
Average Humidity 64    
Maximum Humidity 94    
Minimum Humidity 34    
Precipitation  
Precipitation 0.00 in - - ()
Sea Level Pressure  
Sea Level Pressure 30.06 in    
Wind  
Wind Speed 3 mph (SE)    
Max Wind Speed 15 mph    
Max Gust Speed 21 mph    
Visibility 10 miles    
Events      
Averages and records for this station are not official NWS values.
T = Trace of Precipitation, MM = Missing Value Source: NWS Daily Summary

Daily Weather History Graph

Daily Weather History Graph

Search for Another Location

Airport:

Trip Planner

Search our weather history database for the weather conditions in past years. The results will help you decide how hot, cold, wet, or windy it might be!

Date:

Astronomy

Sep. 10, 2013 Rise Set
Actual Time 7:00 AM CDT 7:30 PM CDT
Civil Twilight 6:35 AM CDT 7:55 PM CDT
Nautical Twilight 6:06 AM CDT 8:23 PM CDT
Astronomical Twilight 5:37 AM CDT 8:53 PM CDT
Moon 12:04 PM CDT (9/10) 10:57 PM CDT (9/10)
Length of Visible Light 13h 19m
Length of Day
12h 30m
Waxing Crescent, 28% of the Moon is Illuminated
Sep 10
Waxing Crescent
Sep 12
First Quarter
Sep 19
Full
Sep 26
Last Quarter
Oct 4
New

Hourly Weather History & Observations

Time (CDT) Temp. Heat Index Dew Point Humidity Pressure Visibility Wind Dir Wind Speed Gust Speed Precip Events Conditions
12:15 AM 73.4 °F - 66.2 °F 78% 30.02 in 10.0 mi Calm Calm - N/A   Clear
12:35 AM 71.6 °F - 66.2 °F 83% 30.02 in 10.0 mi Calm Calm - N/A   Clear
12:55 AM 71.6 °F - 66.2 °F 83% 30.02 in 10.0 mi Calm Calm - N/A   Clear
1:15 AM 71.6 °F - 66.2 °F 83% 30.02 in 10.0 mi Calm Calm - N/A   Clear
1:35 AM 71.6 °F - 66.2 °F 83% 30.03 in 10.0 mi Calm Calm - N/A   Clear
1:55 AM 71.6 °F - 66.2 °F 83% 30.03 in 10.0 mi Calm Calm - N/A   Clear
2:15 AM 69.8 °F - 66.2 °F 88% 30.04 in 10.0 mi Calm Calm - N/A   Clear
2:35 AM 69.8 °F - 66.2 °F 88% 30.03 in 10.0 mi Calm Calm - N/A   Clear
2:55 AM 69.8 °F - 66.2 °F 88% 30.04 in 10.0 mi Calm Calm - N/A   Clear
3:15 AM 69.8 °F - 66.2 °F 88% 30.04 in 10.0 mi Calm Calm - N/A   Clear
3:35 AM 69.8 °F - 66.2 °F 88% 30.04 in 10.0 mi Calm Calm - N/A   Clear
3:55 AM 69.8 °F - 66.2 °F 88% 30.04 in 10.0 mi Calm Calm - N/A   Clear
4:15 AM 69.8 °F - 66.2 °F 88% 30.04 in 10.0 mi Calm Calm - N/A   Clear
4:35 AM 69.8 °F - 64.4 °F 83% 30.04 in 10.0 mi Calm Calm - N/A   Clear
4:55 AM 68.0 °F - 64.4 °F 88% 30.05 in 10.0 mi Calm Calm - N/A   Clear
5:15 AM 69.8 °F - 64.4 °F 83% 30.05 in 10.0 mi Calm Calm - N/A   Clear
5:35 AM 68.0 °F - 64.4 °F 88% 30.05 in 10.0 mi Calm Calm - N/A   Clear
5:55 AM 68.0 °F - 64.4 °F 88% 30.06 in 10.0 mi Calm Calm - N/A   Clear
6:15 AM 68.0 °F - 64.4 °F 88% 30.06 in 10.0 mi Calm Calm - N/A   Clear
6:35 AM 68.0 °F - 64.4 °F 88% 30.07 in 10.0 mi Calm Calm - N/A   Clear
6:55 AM 68.0 °F - 64.4 °F 88% 30.08 in 9.0 mi Calm Calm - N/A   Clear
7:15 AM 68.0 °F - 64.4 °F 88% 30.08 in 8.0 mi Calm Calm - N/A   Clear
7:35 AM 69.8 °F - 66.2 °F 88% 30.09 in 10.0 mi Calm Calm - N/A   Mostly Cloudy
7:55 AM 71.6 °F - 69.8 °F 94% 30.10 in 10.0 mi East 3.5 mph - N/A   Partly Cloudy
8:15 AM 75.2 °F - 71.6 °F 89% 30.10 in 10.0 mi East 4.6 mph - N/A   Clear
8:35 AM 77.0 °F - 71.6 °F 83% 30.11 in 10.0 mi East 3.5 mph - N/A   Clear
8:55 AM 78.8 °F - 71.6 °F 78% 30.11 in 10.0 mi ESE 6.9 mph - N/A   Clear
9:15 AM 78.8 °F - 71.6 °F 78% 30.11 in 10.0 mi SE 4.6 mph - N/A   Clear
9:35 AM 80.6 °F 84.6 °F 71.6 °F 74% 30.11 in 10.0 mi East 5.8 mph - N/A   Clear
9:55 AM 84.2 °F 89.6 °F 71.6 °F 66% 30.11 in 10.0 mi SE 8.1 mph - N/A   Clear
10:15 AM 84.2 °F 88.4 °F 69.8 °F 62% 30.11 in 10.0 mi SE 10.4 mph 17.3 mph N/A   Scattered Clouds
10:35 AM 86.0 °F 90.4 °F 69.8 °F 58% 30.11 in 10.0 mi SE 9.2 mph - N/A   Scattered Clouds
10:55 AM 87.8 °F 91.4 °F 68.0 °F 52% 30.11 in 10.0 mi ESE 12.7 mph 17.3 mph N/A   Scattered Clouds
11:15 AM 87.8 °F 91.4 °F 68.0 °F 52% 30.12 in 10.0 mi ESE 5.8 mph 17.3 mph N/A   Scattered Clouds
11:35 AM 89.6 °F 93.4 °F 68.0 °F 49% 30.11 in 10.0 mi South 10.4 mph - N/A   Scattered Clouds
11:55 AM 89.6 °F 92.2 °F 66.2 °F 46% 30.11 in 10.0 mi ESE 12.7 mph 16.1 mph N/A   Partly Cloudy
12:15 PM 91.4 °F 93.2 °F 64.4 °F 41% 30.11 in 10.0 mi East 10.4 mph 19.6 mph N/A   Partly Cloudy
12:35 PM 91.4 °F 92.1 °F 62.6 °F 38% 30.10 in 10.0 mi SSE 12.7 mph 17.3 mph N/A   Clear
12:55 PM 93.2 °F 94.9 °F 64.4 °F 38% 30.09 in 10.0 mi SE 8.1 mph 19.6 mph N/A   Clear
1:15 PM 93.2 °F 93.3 °F 60.8 °F 34% 30.09 in 10.0 mi SSE 10.4 mph 18.4 mph N/A   Clear
1:35 PM 91.4 °F 90.7 °F 59.0 °F 34% 30.09 in 10.0 mi South 15.0 mph 20.7 mph N/A   Clear
1:55 PM 91.4 °F 91.4 °F 60.8 °F 36% 30.08 in 10.0 mi South 10.4 mph 18.4 mph N/A   Clear
2:15 PM 91.4 °F 92.1 °F 62.6 °F 38% 30.08 in 10.0 mi South 11.5 mph 19.6 mph N/A   Clear
2:35 PM 89.6 °F 90.1 °F 62.6 °F 40% 30.07 in 10.0 mi SE 9.2 mph - N/A   Clear
2:55 PM 91.4 °F 92.1 °F 62.6 °F 38% 30.07 in 10.0 mi South 13.8 mph - N/A   Clear
3:15 PM 91.4 °F 92.1 °F 62.6 °F 38% 30.06 in 10.0 mi SE 11.5 mph 17.3 mph N/A   Clear
3:35 PM 89.6 °F 90.1 °F 62.6 °F 40% 30.05 in 10.0 mi SSE 6.9 mph - N/A   Clear
3:55 PM 89.6 °F 90.1 °F 62.6 °F 40% 30.05 in 10.0 mi SE 9.2 mph - N/A   Clear
4:15 PM 91.4 °F 92.1 °F 62.6 °F 38% 30.04 in 10.0 mi SSE 10.4 mph - N/A   Clear
4:35 PM 91.4 °F 92.1 °F 62.6 °F 38% 30.03 in 10.0 mi ESE 3.5 mph - N/A   Clear
4:55 PM 93.2 °F 94.1 °F 62.6 °F 36% 30.02 in 10.0 mi East 9.2 mph - N/A   Clear
5:15 PM 91.4 °F 92.1 °F 62.6 °F 38% 30.02 in 10.0 mi Calm Calm - N/A   Partly Cloudy
5:35 PM 93.2 °F 94.1 °F 62.6 °F 36% 30.02 in 10.0 mi SE 9.2 mph - N/A   Scattered Clouds
5:55 PM 93.2 °F 94.1 °F 62.6 °F 36% 30.02 in 10.0 mi South 13.8 mph - N/A   Partly Cloudy
6:15 PM 91.4 °F 91.4 °F 60.8 °F 36% 30.02 in 10.0 mi SE 10.4 mph - N/A   Clear
6:35 PM 91.4 °F 91.4 °F 60.8 °F 36% 30.02 in 10.0 mi SE 8.1 mph - N/A   Clear
6:55 PM 91.4 °F 91.4 °F 60.8 °F 36% 30.02 in 10.0 mi SSE 5.8 mph - N/A   Clear
7:15 PM 89.6 °F 90.1 °F 62.6 °F 40% 30.02 in 10.0 mi SE 4.6 mph - N/A   Clear
7:35 PM 87.8 °F 88.5 °F 62.6 °F 43% 30.03 in 10.0 mi SE 4.6 mph - N/A   Clear
7:55 PM 82.4 °F 83.4 °F 62.6 °F 51% 30.03 in 10.0 mi ESE 3.5 mph - N/A   Clear
8:15 PM 82.4 °F 83.4 °F 62.6 °F 51% 30.04 in 10.0 mi Calm Calm - N/A   Clear
8:35 PM 78.8 °F - 64.4 °F 61% 30.05 in 10.0 mi Calm Calm - N/A   Clear
8:55 PM 78.8 °F - 64.4 °F 61% 30.05 in 10.0 mi Calm Calm - N/A   Clear
9:15 PM 78.8 °F - 64.4 °F 61% 30.06 in 10.0 mi Calm Calm - N/A   Clear
9:35 PM 77.0 °F - 64.4 °F 65% 30.07 in 10.0 mi Calm Calm - N/A   Clear
9:55 PM 75.2 °F - 64.4 °F 69% 30.07 in 10.0 mi Calm Calm - N/A   Clear
10:15 PM 75.2 °F - 64.4 °F 69% 30.08 in 10.0 mi Calm Calm - N/A   Clear
10:35 PM 75.2 °F - 64.4 °F 69% 30.08 in 10.0 mi Calm Calm - N/A   Clear
10:55 PM 73.4 °F - 64.4 °F 73% 30.08 in 10.0 mi Calm Calm - N/A   Clear
11:15 PM 73.4 °F - 64.4 °F 73% 30.08 in 10.0 mi Calm Calm - N/A   Clear
11:35 PM 73.4 °F - 64.4 °F 73% 30.08 in 10.0 mi Calm Calm - N/A   Clear
11:55 PM 71.6 °F - 64.4 °F 78% 30.09 in 10.0 mi ESE 3.5 mph - N/A   Clear